EA1EI-13 Weather Reports


time (UTC)temp
C
wind
direction
speed
KPH
gust
KPH
rain 1hr
cm
rain 24hr
cm
rain mn
cm
humidity
%
barometer
mb
20260507071005 9 85 0.0 0.0 0.00 0.00 0.00 89 1010.2
20260507070009 8 63 0.0 0.0 0.00 0.00 0.00 89 1010.2
20260507065005 8 44 0.0 0.0 0.00 0.00 0.00 90 1010.3
20260507064004 8 78 0.0 0.0 0.00 0.00 0.00 89 1010.2
20260507063005 8 47 0.0 0.0 0.00 0.00 0.00 89 1010.4
20260507062004 8 54 0.0 0.0 0.00 0.00 0.00 89 1010.4
20260507061004 8 70 0.0 0.0 0.00 0.00 0.00 89 1010.6
20260507060004 8 73 0.0 0.0 0.00 0.00 0.00 89 1010.2
20260507053005 8 80 0.0 0.0 0.00 0.00 0.00 88 1010.3
20260507052005 8 80 0.0 0.0 0.00 0.00 0.00 88 1010.3
20260507051005 8 80 0.0 0.0 0.00 0.00 0.00 88 1010.3
20260507050005 8 73 0.0 0.0 0.00 0.00 0.00 87 1010.1
20260507045004 8 67 0.0 0.0 0.00 0.00 0.00 87 1010.1
20260507044005 8 55 0.0 0.0 0.00 0.00 0.00 86 1010.2
20260507042005 9 67 0.0 0.0 0.00 0.00 0.00 84 1010.3
20260507041004 9 67 0.0 0.0 0.00 0.00 0.00 83 1010.2
20260507040005 10 67 0.0 0.0 0.00 0.00 0.00 82 1010.3
20260507035004 10 67 0.0 0.0 0.00 0.00 0.00 82 1010.2
20260507034004 10 65 0.0 0.0 0.00 0.00 0.00 82 1010.2
20260507033004 10 60 0.0 0.0 0.00 0.00 0.00 81 1010.1
20260507032004 10 60 0.0 0.0 0.00 0.00 0.00 81 1010.1
20260507025005 10 60 0.0 0.0 0.00 0.00 0.00 81 1010.1
20260507023005 11 71 0.0 0.0 0.00 0.00 0.00 81 1010.2
20260507022004 11 71 0.0 0.0 0.00 0.00 0.00 80 1010.3
20260507021004 11 55 0.0 0.0 0.00 0.00 0.00 79 1010.4
20260507020004 11 67 0.0 0.0 0.00 0.00 0.00 80 1010.4
20260507015005 11 76 0.0 0.0 0.00 0.00 0.00 80 1010.5
20260507014004 11 61 0.0 0.0 0.00 0.00 0.00 80 1010.5
20260507013004 11 69 0.0 0.0 0.00 0.00 0.00 80 1010.6
20260507012005 11 69 0.0 0.0 0.00 0.00 0.00 80 1010.7
20260507011005 11 70 0.0 0.0 0.00 0.00 0.00 80 1010.8
20260507010005 11 79 0.0 0.0 0.00 0.00 0.00 80 1010.8
20260507005004 10 55 0.0 0.0 0.00 0.00 0.00 81 1010.9
20260507004004 10 57 0.0 0.0 0.00 0.00 0.00 81 1011.0
20260507003004 10 51 0.0 0.0 0.00 0.00 0.00 81 1011.0
20260506235005 11 68 0.0 0.0 0.00 0.00 0.00 78 1011.3
20260506234005 10 101 0.0 0.0 0.00 0.00 0.00 78 1011.4
20260506233004 10 99 0.0 0.0 0.00 0.00 0.00 78 1011.4
20260506232005 10 99 0.0 0.0 0.00 0.00 0.00 77 1011.3
20260506231005 10 103 0.0 0.0 0.00 0.00 0.00 76 1011.3
20260506230005 11 105 0.0 0.0 0.00 0.00 0.00 73 1011.4
20260506225004 11 106 0.0 0.0 0.00 0.00 0.00 72 1011.3
20260506224004 11 91 0.0 0.0 0.00 0.00 0.00 71 1011.5
20260506222003 11 90 0.0 0.0 0.00 0.00 0.00 71 1011.5
20260506221004 11 89 0.0 0.0 0.00 0.00 0.00 70 1011.5
20260506220004 11 90 0.0 0.0 0.00 0.00 0.00 69 1011.4
20260506212004 12 77 0.0 0.0 0.00 0.00 0.00 65 1011.6
20260506211004 12 76 0.0 0.0 0.00 0.00 0.00 66 1011.7
20260506205004 12 68 0.0 0.0 0.00 0.00 0.00 63 1011.7
20260506204004 12 67 0.0 0.0 0.00 0.00 0.00 63 1011.6
20260506203005 13 67 0.0 0.0 0.00 0.00 0.00 62 1011.4
20260506202004 13 67 0.0 0.0 0.00 0.00 0.00 61 1011.3
20260506201004 14 61 0.0 0.0 0.00 0.00 0.00 61 1011.3
20260506200004 14 61 0.0 0.0 0.00 0.00 0.00 60 1011.2
20260506194005 15 61 0.0 0.0 0.00 0.00 0.00 56 1011.1
20260506193005 15 39 0.0 0.0 0.00 0.00 0.00 55 1011.1
20260506192005 15 56 0.0 0.0 0.00 0.00 0.00 54 1011.0
20260506183005 16 81 0.0 0.0 0.00 0.00 0.00 52 1011.0
20260506182004 16 72 0.0 0.0 0.00 0.00 0.00 51 1010.9
20260506181005 16 34 0.0 0.0 0.00 0.00 0.00 51 1010.9
20260506173004 16 64 0.0 1.6 0.00 0.00 0.00 50 1011.0
20260506171005 16 110 0.0 0.0 0.00 0.00 0.00 48 1011.1
20260506170005 16 110 0.0 0.0 0.00 0.00 0.00 49 1011.2
20260506165004 16 115 0.0 0.0 0.00 0.00 0.00 47 1011.2
20260506163004 16 109 0.0 0.0 0.00 0.00 0.00 50 1011.4
20260506162005 16 95 0.0 0.0 0.00 0.00 0.00 50 1011.5
20260506161005 16 114 0.0 0.0 0.00 0.00 0.00 50 1011.5
20260506155004 16 80 0.0 0.0 0.00 0.00 0.00 49 1011.7
20260506153005 17 207 0.0 0.0 0.00 0.00 0.00 49 1011.7
20260506152005 16 108 0.0 0.0 0.00 0.00 0.00 49 1011.8
20260506151005 16 114 0.0 0.0 0.00 0.00 0.00 50 1011.9
20260506150004 16 101 0.0 0.0 0.00 0.00 0.00 51 1012.0
20260506143004 17 105 0.0 3.2 0.00 0.00 0.00 50 1012.3
20260506142005 17 103 0.0 0.0 0.00 0.00 0.00 50 1012.5
20260506141005 16 66 0.0 0.0 0.00 0.00 0.00 51 1012.6
20260506140004 16 89 0.0 0.0 0.00 0.00 0.00 52 1012.7
20260506135004 16 236 0.0 0.0 0.00 0.00 0.00 52 1012.8
20260506134004 15 214 0.0 0.0 0.00 0.00 0.00 52 1013.0
20260506133004 15 121 0.0 0.0 0.00 0.00 0.00 52 1013.1
20260506132005 15 114 0.0 1.6 0.00 0.00 0.00 54 1013.1
20260506131005 15 109 0.0 0.0 0.00 0.00 0.00 53 1013.1
20260506125004 15 66 0.0 0.0 0.00 0.00 0.00 56 1013.3
20260506124005 15 131 0.0 1.6 0.00 0.00 0.00 55 1013.4
20260506123004 14 103 0.0 0.0 0.00 0.00 0.00 56 1013.5
20260506122004 14 94 0.0 1.6 0.00 0.00 0.00 56 1013.5
20260506121004 15 60 0.0 0.0 0.00 0.00 0.00 56 1013.6
20260506120005 15 73 0.0 0.0 0.00 0.00 0.00 54 1013.7
20260506115004 15 184 0.0 0.0 0.00 0.00 0.00 54 1013.7
20260506114005 15 331 0.0 0.0 0.00 0.00 0.00 53 1013.9
20260506113004 16 29 0.0 0.0 0.00 0.00 0.00 54 1014.0
20260506112004 15 103 0.0 0.0 0.00 0.00 0.00 55 1014.0
20260506111004 15 51 0.0 0.0 0.00 0.00 0.00 55 1014.2
20260506105005 14 55 0.0 0.0 0.00 0.00 0.00 56 1014.2
20260506104003 13 347 0.0 0.0 0.00 0.00 0.00 57 1014.3
20260506103004 13 60 0.0 0.0 0.00 0.00 0.00 58 1014.3
20260506101004 12 100 0.0 1.6 0.00 0.00 0.00 61 1014.4
20260506100004 12 56 0.0 0.0 0.00 0.00 0.00 64 1014.5
20260506095004 11 65 0.0 1.6 0.00 0.00 0.00 67 1014.5
20260506094005 11 76 0.0 0.0 0.00 0.00 0.00 69 1014.5
20260506093005 11 39 0.0 0.0 0.00 0.00 0.00 69 1014.6
20260506092004 11 89 0.0 0.0 0.00 0.00 0.00 69 1014.6
20260506091004 11 75 0.0 0.0 0.00 0.00 0.00 71 1014.6
20260506085004 10 83 0.0 1.6 0.00 0.00 0.00 77 1014.5
20260506084004 10 76 0.0 0.0 0.00 0.00 0.00 81 1014.6
20260506083005 10 88 0.0 0.0 0.00 0.00 0.00 83 1014.6
20260506082005 9 88 0.0 0.0 0.00 0.00 0.00 84 1014.6
20260506073004 7 103 0.0 0.0 0.00 0.00 0.00 87 1014.7
20260506072004 7 104 0.0 0.0 0.00 0.00 0.00 88 1014.7